NOAA 16 DEB, 42384

Orbit data source: Space-Track

NOAA 16 DEB, 42384 is space debris in SSO originally from a launch on Thu, 21 Sep 2000 UTC launched from the Air Force Western Test Range (AFWTR). Debris objects in space refer to the collection of defunct objects orbiting the Earth. Examples of debris include non-operational satellites, rocket bodies, and fragments generated from explosions, collisions, or faulty payload assembly.

Loading next visibility...
Identifier
42384, 2000-055SC
Orbit
SSO
Country
Flag of USUS
Related business
Manufacturer
Unknown
Mission
Spacecraft
Bus & Motor
Unknown
Mass
Unknown
Launch date (UTC)
2000-09-21 (25 years ago)
Launch vehicle
Unknown
Launch site
Air Force Western Test Range (AFWTR)
Object type
Payload
Rocket body
Debris
Shape & HBR
Unknown shape, 0.1 m
Radar Cross Section
Small (<0.1 m²)

Expand to show TLE details & history
Last TLE update: 3 days ago

TLE from 3 days ago
0 NOAA 16 DEB
1 42384U 00055SC  25347.99725627  .00006298  00000-0  23521-2 0  9999
2 42384  98.6751  60.8209 0014681 137.6882 222.5436 14.32145855505450
Epoch: 2025-12-13T23:56Z
TLE epoch observation values (Epoch: 2025-12-13T23:56:02.941Z)
Latitude
-0.00009°
Longitude
-21.10784°
Altitude
795.255 km
Speed
7.452 km/s
True Right ascension
04h 03m 17s
True Declination
0° 00' 00"
Sunlit
Object was in full shadow at epoch
Visualization orbit readout
Latitude
Unknown
Longitude
Unknown
Altitude
Unknown
Speed
Unknown
Apparent Right ascension
Unknown
Apparent Declination
Unknown
Sunlit
N/A
Visualization observer readout
Local Sidereal Time
12:53:39
Azimuth
Unknown
Elevation
Unknown
Doppler factor
Unknown
Orbital elements
Apogee altitude
792.219 km
Perigee altitude
771.196 km
Semi-major axis
7,159.845 km
Eccentricity
0.00147
Inclination
98.6751°
RAAN
60.8209°
Arg. of periapsis
137.6882°
True anomaly
222.43°
Mean anomaly
222.5436°
Eccentric anomaly
222.48679°
Mean motion
3.58251 °/min
Orbital period
100.49 mins
BSTAR
0.0023521
Loading maneuver chart data...
Computing Atmospheric mass density...
Loading historical data...
Loading historical data...
Loading historical data...
Loading historical data...
Loading historical data...
Loading historical data...
Loading historical data...

Documentation

Showing up to 5 results
|